"read_dt","SO2 (ppb)","flags","PMT voltage (V)","lamp voltage (V)","lamp intensity (Hz)","internal temp (C)","react chamber temp (C)","sample flow (l/min)","pres (mmHg)","SO2 bkg (ppb)","SO2 coefficient"
2013-11-03 00:00:00,9040E-4,5C000000,-0724,0956,11012,020.4,045.1,0.404,733.5,01.19,0.508
2013-11-03 00:01:00,8004E-4,5C000000,-0724,0956,10921,020.4,045.1,0.404,733.6,01.19,0.508
2013-11-03 00:02:00,7908E-4,5C000000,-0724,0956,10900,020.4,045.1,0.404,733.6,01.19,0.508
2013-11-03 00:03:00,9459E-4,5C000000,-0724,0956,10858,020.4,045.1,0.404,733.5,01.19,0.508
2013-11-03 00:04:00,9746E-4,5C000000,-0724,0956,11041,020.4,045.1,0.404,733.6,01.19,0.508
2013-11-03 00:05:00,8465E-4,5C000000,-0724,0957,11059,020.4,045.1,0.404,733.5,01.19,0.508
2013-11-03 00:06:00,8481E-4,5C000000,-0724,0956,10986,020.4,045.1,0.404,733.5,01.19,0.508
2013-11-03 00:07:00,9553E-4,5C000000,-0724,0956,11053,020.4,045.1,0.404,733.6,01.19,0.508
2013-11-03 00:08:00,9010E-4,5C000000,-0724,0957,10981,020.4,045.1,0.404,733.6,01.19,0.508
2013-11-03 00:09:00,8906E-4,5C000000,-0724,0956,10940,020.4,045.1,0.404,733.5,01.19,0.508
2013-11-03 00:10:00,8433E-4,5C000000,-0724,0956,11037,020.4,045.1,0.404,733.5,01.19,0.508
2013-11-03 00:11:00,8812E-4,5C000000,-0724,0957,10970,020.4,045.1,0.404,733.5,01.19,0.508
2013-11-03 00:12:00,7496E-4,5C000000,-0724,0957,11069,020.4,045.1,0.404,733.5,01.19,0.508
2013-11-03 00:13:00,9459E-4,5C000000,-0724,0957,11005,020.4,045.1,0.404,733.4,01.19,0.508
2013-11-03 00:14:00,8728E-4,5C000000,-0724,0956,10963,020.4,045.1,0.404,733.5,01.19,0.508
2013-11-03 00:15:00,1020E-3,5C000000,-0724,0956,11025,020.4,045.1,0.404,733.5,01.19,0.508
2013-11-03 00:16:00,8531E-4,5C000000,-0724,0956,11084,020.4,045.1,0.404,733.4,01.19,0.508
2013-11-03 00:17:00,8537E-4,5C000000,-0724,0957,10988,020.4,045.1,0.404,733.5,01.19,0.508
2013-11-03 00:18:00,9293E-4,5C000000,-0724,0956,10830,020.4,045.1,0.404,733.4,01.19,0.508
2013-11-03 00:19:00,8681E-4,5C000000,-0724,0956,11008,020.4,045.1,0.404,733.4,01.19,0.508
2013-11-03 00:20:00,8654E-4,5C000000,-0724,0956,10839,020.4,045.1,0.404,733.6,01.19,0.508
2013-11-03 00:21:00,9318E-4,5C000000,-0724,0956,10847,020.4,045.1,0.404,733.5,01.19,0.508
2013-11-03 00:22:00,8624E-4,5C000000,-0724,0957,10869,020.4,045.1,0.404,733.5,01.19,0.508
2013-11-03 00:23:00,8048E-4,5C000000,-0724,0956,10943,020.4,045.1,0.404,733.4,01.19,0.508
2013-11-03 00:24:00,7611E-4,5C000000,-0724,0956,10890,020.4,045.1,0.404,733.5,01.19,0.508
2013-11-03 00:25:00,8100E-4,5C000000,-0724,0956,11047,020.4,045.1,0.404,733.3,01.19,0.508
2013-11-03 00:26:00,8876E-4,5C000000,-0724,0957,11022,020.4,045.1,0.404,733.4,01.19,0.508
2013-11-03 00:27:00,7797E-4,5C000000,-0724,0957,10841,020.4,045.1,0.404,733.2,01.19,0.508
2013-11-03 00:28:00,8996E-4,5C000000,-0724,0956,10911,020.4,045.1,0.403,733.3,01.19,0.508
2013-11-03 00:29:00,8864E-4,5C000000,-0724,0957,11008,020.4,045.1,0.404,733.3,01.19,0.508
2013-11-03 00:30:00,7636E-4,5C000000,-0724,0957,10765,020.4,045.1,0.404,733.2,01.19,0.508
2013-11-03 00:31:00,8361E-4,5C000000,-0724,0957,11085,020.4,045.1,0.403,733.2,01.19,0.508
2013-11-03 00:32:00,9639E-4,5C000000,-0724,0956,10983,020.4,045.1,0.404,733.3,01.19,0.508
2013-11-03 00:33:00,8126E-4,5C000000,-0724,0956,10935,020.4,045.1,0.404,733.1,01.19,0.508
2013-11-03 00:34:00,8610E-4,5C000000,-0724,0956,10930,020.4,045.1,0.403,733.1,01.19,0.508
2013-11-03 00:35:00,7973E-4,5C000000,-0724,0957,10964,020.4,045.1,0.404,733.0,01.19,0.508
2013-11-03 00:36:00,8082E-4,5C000000,-0724,0958,10945,020.4,045.1,0.404,733.2,01.19,0.508
2013-11-03 00:37:00,9989E-4,5C000000,-0724,0957,10936,020.4,045.1,0.403,733.4,01.19,0.508
2013-11-03 00:38:00,8697E-4,5C000000,-0724,0956,10968,020.4,045.1,0.404,733.3,01.19,0.508
2013-11-03 00:39:00,9219E-4,5C000000,-0724,0956,10927,020.4,045.1,0.404,733.3,01.19,0.508
2013-11-03 00:40:00,8778E-4,5C000000,-0724,0956,11009,020.4,045.1,0.403,733.3,01.19,0.508
2013-11-03 00:41:00,8532E-4,5C000000,-0724,0956,11076,020.4,045.1,0.404,733.2,01.19,0.508
2013-11-03 00:42:00,9362E-4,5C000000,-0724,0957,10897,020.4,045.1,0.404,733.2,01.19,0.508
2013-11-03 00:43:00,8145E-4,5C000000,-0724,0956,10886,020.4,045.1,0.404,733.3,01.19,0.508
2013-11-03 00:44:00,8411E-4,5C000000,-0724,0957,10943,020.4,045.1,0.404,733.3,01.19,0.508
2013-11-03 00:45:00,7828E-4,5C000000,-0724,0957,11057,020.4,045.1,0.404,733.2,01.19,0.508
2013-11-03 00:46:00,8151E-4,5C000000,-0724,0956,10987,020.4,045.1,0.403,733.2,01.19,0.508
2013-11-03 00:47:00,9979E-4,5C000000,-0724,0956,11029,020.4,045.1,0.404,733.1,01.19,0.508
2013-11-03 00:48:00,8220E-4,5C000000,-0724,0956,11021,020.4,045.1,0.404,733.3,01.19,0.508
2013-11-03 00:49:00,8471E-4,5C000000,-0724,0956,10875,020.4,045.1,0.403,733.2,01.19,0.508
2013-11-03 00:50:00,1012E-3,5C000000,-0724,0957,11072,020.4,045.1,0.404,733.2,01.19,0.508
2013-11-03 00:51:00,8997E-4,5C000000,-0724,0956,10834,020.4,045.1,0.404,733.3,01.19,0.508
2013-11-03 00:52:00,8965E-4,5C000000,-0724,0956,10947,020.4,045.1,0.404,733.2,01.19,0.508
2013-11-03 00:53:00,7733E-4,5C000000,-0724,0956,11090,020.4,045.1,0.404,733.4,01.19,0.508
2013-11-03 00:54:00,9018E-4,5C000000,-0724,0957,10865,020.4,045.1,0.404,733.2,01.19,0.508
2013-11-03 00:55:00,8572E-4,5C000000,-0724,0956,10882,020.4,045.1,0.404,733.3,01.19,0.508
2013-11-03 00:56:00,8804E-4,5C000000,-0724,0956,10852,020.4,045.1,0.404,733.4,01.19,0.508
2013-11-03 00:57:00,8376E-4,5C000000,-0724,0956,10829,020.3,045.1,0.404,733.3,01.19,0.508
2013-11-03 00:58:00,8436E-4,5C000000,-0724,0957,11025,020.4,045.1,0.404,733.3,01.19,0.508
2013-11-03 00:59:00,7960E-4,5C000000,-0724,0955,10967,020.4,045.1,0.404,733.4,01.19,0.508
2013-11-03 01:00:00,9370E-4,5C000000,-0724,0956,11005,020.4,045.1,0.404,733.4,01.19,0.508
2013-11-03 01:01:00,9308E-4,5C000000,-0724,0956,10924,020.4,045.1,0.404,733.4,01.19,0.508
2013-11-03 01:02:00,8979E-4,5C000000,-0724,0956,10955,020.4,045.1,0.404,733.3,01.19,0.508
2013-11-03 01:03:00,8075E-4,5C000000,-0724,0956,10962,020.4,045.1,0.404,733.3,01.19,0.508
2013-11-03 01:04:00,8258E-4,5C000000,-0724,0956,10934,020.4,045.1,0.404,733.3,01.19,0.508
2013-11-03 01:05:00,8758E-4,5C000000,-0724,0956,11038,020.4,045.1,0.404,733.2,01.19,0.508
2013-11-03 01:06:00,7771E-4,5C000000,-0724,0957,10941,020.4,045.1,0.404,733.3,01.19,0.508
2013-11-03 01:07:00,8246E-4,5C000000,-0724,0955,10911,020.3,045.1,0.404,733.5,01.19,0.508
2013-11-03 01:08:00,9020E-4,5C000000,-0724,0956,10956,020.4,045.1,0.403,733.4,01.19,0.508
2013-11-03 01:09:00,8839E-4,5C000000,-0724,0956,10965,020.3,045.1,0.404,733.3,01.19,0.508
2013-11-03 01:10:00,9180E-4,5C000000,-0724,0956,10781,020.3,045.1,0.404,733.3,01.19,0.508
2013-11-03 01:11:00,9129E-4,5C000000,-0724,0956,10974,020.3,045.1,0.404,733.3,01.19,0.508
2013-11-03 01:12:00,9303E-4,5C000000,-0724,0956,10961,020.3,045.1,0.404,733.5,01.19,0.508
2013-11-03 01:13:00,9152E-4,5C000000,-0724,0956,10899,020.3,045.1,0.404,733.5,01.19,0.508
2013-11-03 01:14:00,8940E-4,5C000000,-0724,0956,10881,020.4,045.1,0.404,733.3,01.19,0.508
2013-11-03 01:15:00,8790E-4,5C000000,-0724,0956,10967,020.3,045.1,0.404,733.4,01.19,0.508
2013-11-03 01:16:00,9154E-4,5C000000,-0724,0956,10897,020.3,045.1,0.404,733.5,01.19,0.508
2013-11-03 01:17:00,8492E-4,5C000000,-0724,0956,11080,020.3,045.1,0.404,733.5,01.19,0.508
2013-11-03 01:18:00,7880E-4,5C000000,-0724,0955,11025,020.3,045.1,0.404,733.6,01.19,0.508
2013-11-03 01:19:00,9440E-4,5C000000,-0724,0956,10952,020.4,045.1,0.404,733.6,01.19,0.508
2013-11-03 01:20:00,8459E-4,5C000000,-0724,0956,11001,020.3,045.1,0.404,733.5,01.19,0.508
2013-11-03 01:21:00,7823E-4,5C000000,-0724,0956,10871,020.3,045.1,0.404,733.5,01.19,0.508
2013-11-03 01:22:00,8544E-4,5C000000,-0724,0957,10965,020.3,045.1,0.404,733.5,01.19,0.508
2013-11-03 01:23:00,8669E-4,5C000000,-0724,0956,10956,020.3,045.1,0.404,733.6,01.19,0.508
2013-11-03 01:24:00,7953E-4,5C000000,-0724,0956,10921,020.3,045.1,0.404,733.6,01.19,0.508
2013-11-03 01:25:00,8194E-4,5C000000,-0724,0956,10896,020.3,045.1,0.404,733.7,01.19,0.508
2013-11-03 01:26:00,8777E-4,5C000000,-0724,0956,10989,020.3,045.1,0.404,733.7,01.19,0.508
2013-11-03 01:27:00,7655E-4,5C000000,-0724,0956,11001,020.3,045.1,0.404,733.6,01.19,0.508
2013-11-03 01:28:00,8122E-4,5C000000,-0724,0956,10948,020.3,045.1,0.404,733.5,01.19,0.508
2013-11-03 01:29:00,7879E-4,5C000000,-0724,0956,11047,020.3,045.1,0.404,733.4,01.19,0.508
2013-11-03 01:30:00,8081E-4,5C000000,-0724,0956,10992,020.3,045.1,0.404,733.4,01.19,0.508
2013-11-03 01:31:00,7461E-4,5C000000,-0724,0956,11022,020.3,045.1,0.404,733.6,01.19,0.508
2013-11-03 01:32:00,8045E-4,5C000000,-0724,0956,10976,020.3,045.1,0.404,733.7,01.19,0.508
2013-11-03 01:33:00,8737E-4,5C000000,-0724,0956,10849,020.3,045.1,0.404,733.5,01.19,0.508
2013-11-03 01:34:00,7787E-4,5C000000,-0724,0957,10945,020.4,045.1,0.404,733.6,01.19,0.508
2013-11-03 01:35:00,8002E-4,5C000000,-0724,0956,10934,020.3,045.1,0.404,733.6,01.19,0.508
2013-11-03 01:36:00,8116E-4,5C000000,-0724,0956,10906,020.3,045.1,0.404,733.5,01.19,0.508
2013-11-03 01:37:00,8790E-4,5C000000,-0724,0956,10889,020.3,045.1,0.404,733.6,01.19,0.508
2013-11-03 01:38:00,8648E-4,5C000000,-0724,0956,10840,020.3,045.1,0.404,733.5,01.19,0.508
2013-11-03 01:39:00,8595E-4,5C000000,-0724,0956,10924,020.3,045.1,0.404,733.7,01.19,0.508
2013-11-03 01:40:00,6868E-4,5C000000,-0724,0957,10851,020.3,045.1,0.404,733.6,01.19,0.508
2013-11-03 01:41:00,7987E-4,5C000000,-0724,0957,10921,020.3,045.1,0.404,733.5,01.19,0.508
2013-11-03 01:42:00,7710E-4,5C000000,-0724,0956,10945,020.3,045.1,0.404,733.6,01.19,0.508
2013-11-03 01:43:00,9471E-4,5C000000,-0724,0956,10851,020.3,045.1,0.404,733.5,01.19,0.508
2013-11-03 01:44:00,8196E-4,5C000000,-0724,0956,11027,020.3,045.1,0.404,733.5,01.19,0.508
2013-11-03 01:45:00,8483E-4,5C000000,-0724,0956,11009,020.3,045.1,0.404,733.5,01.19,0.508
2013-11-03 01:46:00,8583E-4,5C000000,-0724,0957,10923,020.3,045.1,0.404,733.5,01.19,0.508
2013-11-03 01:47:00,8482E-4,5C000000,-0724,0957,10829,020.3,045.1,0.404,733.5,01.19,0.508
2013-11-03 01:48:00,7927E-4,5C000000,-0724,0956,10844,020.3,045.1,0.404,733.5,01.19,0.508
2013-11-03 01:49:00,9001E-4,5C000000,-0724,0956,10992,020.3,045.1,0.404,733.6,01.19,0.508
2013-11-03 01:50:00,8101E-4,5C000000,-0724,0956,10995,020.3,045.1,0.404,733.6,01.19,0.508
2013-11-03 01:51:00,9239E-4,5C000000,-0724,0956,10968,020.3,045.0,0.404,733.5,01.19,0.508
2013-11-03 01:52:00,8851E-4,5C000000,-0724,0956,10912,020.3,045.1,0.404,733.5,01.19,0.508
2013-11-03 01:53:00,8763E-4,5C000000,-0724,0955,10984,020.3,045.1,0.404,733.5,01.19,0.508
2013-11-03 01:54:00,8064E-4,5C000000,-0724,0956,11046,020.3,045.1,0.404,733.5,01.19,0.508
2013-11-03 01:55:00,8113E-4,5C000000,-0724,0956,11043,020.3,045.1,0.404,733.5,01.19,0.508
2013-11-03 01:56:00,9100E-4,5C000000,-0724,0956,11046,020.3,045.1,0.404,733.6,01.19,0.508
2013-11-03 01:57:00,7816E-4,5C000000,-0724,0956,10956,020.3,045.1,0.404,733.6,01.19,0.508
2013-11-03 01:58:00,7743E-4,5C000000,-0724,0957,11034,020.4,045.1,0.404,733.4,01.19,0.508
2013-11-03 01:59:00,8705E-4,5C000000,-0724,0956,11062,020.3,045.1,0.404,733.5,01.19,0.508
2013-11-03 02:00:00,8282E-4,5C000000,-0724,0956,10833,020.3,045.1,0.404,733.6,01.19,0.508
2013-11-03 02:01:00,8751E-4,5C000000,-0724,0956,10917,020.3,045.1,0.404,733.7,01.19,0.508
2013-11-03 02:02:00,7631E-4,5C000000,-0724,0956,10950,020.4,045.1,0.404,733.6,01.19,0.508
2013-11-03 02:03:00,8234E-4,5C000000,-0724,0956,10857,020.3,045.1,0.404,733.6,01.19,0.508
2013-11-03 02:04:00,8453E-4,5C000000,-0724,0956,11045,020.3,045.1,0.404,733.6,01.19,0.508
2013-11-03 02:05:00,9081E-4,5C000000,-0724,0956,10932,020.3,045.1,0.404,733.6,01.19,0.508
2013-11-03 02:06:00,7770E-4,5C000000,-0724,0956,11121,020.3,045.1,0.404,733.6,01.19,0.508
2013-11-03 02:07:00,9176E-4,5C000000,-0724,0956,10883,020.3,045.1,0.404,733.6,01.19,0.508
2013-11-03 02:08:00,9299E-4,5C000000,-0724,0956,11028,020.3,045.1,0.404,733.6,01.19,0.508
2013-11-03 02:09:00,8235E-4,5C000000,-0724,0956,10919,020.3,045.1,0.404,733.5,01.19,0.508
2013-11-03 02:10:00,8416E-4,5C000000,-0724,0956,11037,020.3,045.1,0.404,733.5,01.19,0.508
2013-11-03 02:11:00,8137E-4,5C000000,-0724,0956,10833,020.4,045.1,0.404,733.5,01.19,0.508
2013-11-03 02:12:00,7677E-4,5C000000,-0724,0956,11076,020.4,045.1,0.404,733.5,01.19,0.508
2013-11-03 02:13:00,9140E-4,5C000000,-0724,0956,11076,020.4,045.1,0.404,733.4,01.19,0.508
2013-11-03 02:14:00,8663E-4,5C000000,-0724,0955,10871,020.4,045.1,0.404,733.5,01.19,0.508
2013-11-03 02:15:00,8137E-4,5C000000,-0724,0956,10993,020.3,045.1,0.404,733.5,01.19,0.508
2013-11-03 02:16:00,9045E-4,5C000000,-0724,0956,10971,020.3,045.1,0.404,733.6,01.19,0.508
2013-11-03 02:17:00,8487E-4,5C000000,-0724,0956,11022,020.3,045.1,0.404,733.5,01.19,0.508
2013-11-03 02:18:00,7275E-4,5C000000,-0724,0956,11062,020.3,045.1,0.404,733.6,01.19,0.508
2013-11-03 02:19:00,8198E-4,5C000000,-0724,0957,11014,020.3,045.1,0.404,733.6,01.19,0.508
2013-11-03 02:20:00,7493E-4,5C000000,-0724,0956,11005,020.3,045.1,0.404,733.6,01.19,0.508
2013-11-03 02:21:00,8851E-4,5C000000,-0724,0957,11030,020.3,045.1,0.404,733.6,01.19,0.508
2013-11-03 02:22:00,7933E-4,5C000000,-0724,0956,11022,020.3,045.1,0.404,733.4,01.19,0.508
2013-11-03 02:23:00,7802E-4,5C000000,-0724,0956,11100,020.3,045.1,0.404,733.5,01.19,0.508
2013-11-03 02:24:00,8277E-4,5C000000,-0724,0955,11004,020.3,045.1,0.404,733.5,01.19,0.508
2013-11-03 02:25:00,8551E-4,5C000000,-0724,0956,10994,020.3,045.1,0.404,733.5,01.19,0.508
2013-11-03 02:26:00,8091E-4,5C000000,-0724,0956,11019,020.3,045.1,0.404,733.5,01.19,0.508
2013-11-03 02:27:00,7550E-4,5C000000,-0724,0957,11049,020.4,045.1,0.404,733.5,01.19,0.508
2013-11-03 02:28:00,8769E-4,5C000000,-0724,0956,10921,020.3,045.1,0.404,733.5,01.19,0.508
2013-11-03 02:29:00,8348E-4,5C000000,-0724,0956,11004,020.4,045.1,0.404,733.4,01.19,0.508
2013-11-03 02:30:00,8210E-4,5C000000,-0724,0957,10925,020.4,045.1,0.404,733.3,01.19,0.508
2013-11-03 02:31:00,7526E-4,5C000000,-0724,0957,10956,020.3,045.1,0.404,733.2,01.19,0.508
2013-11-03 02:32:00,8831E-4,5C000000,-0724,0956,10965,020.3,045.1,0.404,733.2,01.19,0.508
2013-11-03 02:33:00,8429E-4,5C000000,-0724,0956,10837,020.3,045.1,0.404,733.2,01.19,0.508
2013-11-03 02:34:00,7536E-4,5C000000,-0724,0957,10957,020.3,045.1,0.404,733.1,01.19,0.508
2013-11-03 02:35:00,7677E-4,5C000000,-0724,0957,10993,020.4,045.1,0.404,733.1,01.19,0.508
2013-11-03 02:36:00,8142E-4,5C000000,-0724,0957,11092,020.3,045.1,0.404,733.1,01.19,0.508
2013-11-03 02:37:00,7740E-4,5C000000,-0724,0957,10893,020.3,045.1,0.404,733.4,01.19,0.508
2013-11-03 02:38:00,7397E-4,5C000000,-0724,0956,11059,020.3,045.1,0.404,733.4,01.19,0.508
2013-11-03 02:39:00,7727E-4,5C000000,-0724,0957,11032,020.3,045.1,0.404,733.2,01.19,0.508
2013-11-03 02:40:00,8004E-4,5C000000,-0724,0956,10813,020.3,045.1,0.404,733.1,01.19,0.508
2013-11-03 02:41:00,8135E-4,5C000000,-0724,0957,10956,020.3,045.1,0.404,733.3,01.19,0.508
2013-11-03 02:42:00,8655E-4,5C000000,-0724,0958,10951,020.3,045.1,0.404,733.3,01.19,0.508
2013-11-03 02:43:00,8608E-4,5C000000,-0724,0956,10943,020.3,045.1,0.404,733.3,01.19,0.508
2013-11-03 02:44:00,8692E-4,5C000000,-0724,0956,11055,020.3,045.1,0.404,733.3,01.19,0.508
2013-11-03 02:45:00,7641E-4,5C000000,-0724,0956,10918,020.3,045.1,0.404,733.3,01.19,0.508
2013-11-03 02:46:00,8179E-4,5C000000,-0724,0956,10949,020.3,045.1,0.404,733.2,01.19,0.508
2013-11-03 02:47:00,8459E-4,5C000000,-0724,0957,10887,020.3,045.1,0.404,733.2,01.19,0.508
2013-11-03 02:48:00,8334E-4,5C000000,-0724,0956,10995,020.3,045.1,0.404,733.2,01.19,0.508
2013-11-03 02:49:00,8771E-4,5C000000,-0724,0957,11055,020.3,045.1,0.404,733.3,01.19,0.508
2013-11-03 02:50:00,8413E-4,5C000000,-0724,0956,10988,020.3,045.1,0.404,733.2,01.19,0.508
2013-11-03 02:51:00,8351E-4,5C000000,-0724,0957,10965,020.3,045.1,0.404,733.3,01.19,0.508
2013-11-03 02:52:00,7642E-4,5C000000,-0724,0957,11022,020.3,045.1,0.404,733.2,01.19,0.508
2013-11-03 02:53:00,7589E-4,5C000000,-0724,0956,10978,020.3,045.1,0.404,733.3,01.19,0.508
2013-11-03 02:54:00,7622E-4,5C000000,-0724,0956,11060,020.3,045.1,0.404,733.3,01.19,0.508
2013-11-03 02:55:00,8179E-4,5C000000,-0724,0956,10949,020.3,045.1,0.404,733.4,01.19,0.508
2013-11-03 02:56:00,9014E-4,5C000000,-0724,0956,10914,020.3,045.1,0.404,733.3,01.19,0.508
2013-11-03 02:57:00,8118E-4,5C000000,-0724,0956,11065,020.3,045.1,0.404,733.4,01.19,0.508
2013-11-03 02:58:00,7731E-4,5C000000,-0724,0957,10920,020.3,045.1,0.404,733.4,01.19,0.508
2013-11-03 02:59:00,7820E-4,5C000000,-0724,0956,10946,020.3,045.1,0.404,733.2,01.19,0.508
2013-11-03 03:00:00,8447E-4,5C000000,-0724,0956,10948,020.3,045.1,0.404,733.1,01.19,0.508
2013-11-03 03:01:00,7061E-4,5C000000,-0724,0956,10995,020.3,045.1,0.404,733.1,01.19,0.508
2013-11-03 03:02:00,8756E-4,5C000000,-0724,0955,10955,020.3,045.1,0.404,733.2,01.19,0.508
2013-11-03 03:03:00,8069E-4,5C000000,-0724,0956,10852,020.3,045.1,0.404,733.2,01.19,0.508
2013-11-03 03:04:00,8606E-4,5C000000,-0724,0955,10915,020.3,045.1,0.404,733.2,01.19,0.508
2013-11-03 03:05:00,9001E-4,5C000000,-0724,0956,10910,020.3,045.1,0.404,733.2,01.19,0.508
2013-11-03 03:06:00,8258E-4,5C000000,-0724,0957,10945,020.3,045.1,0.404,733.2,01.19,0.508
2013-11-03 03:07:00,8200E-4,5C000000,-0724,0956,10913,020.3,045.1,0.404,733.2,01.19,0.508
2013-11-03 03:08:00,8991E-4,5C000000,-0724,0956,10974,020.3,045.1,0.404,733.2,01.19,0.508
2013-11-03 03:09:00,8857E-4,5C000000,-0724,0956,10983,020.3,045.1,0.404,733.1,01.19,0.508
2013-11-03 03:10:00,9295E-4,5C000000,-0724,0956,11002,020.3,045.1,0.404,733.2,01.19,0.508
2013-11-03 03:11:00,7138E-4,5C000000,-0724,0956,10987,020.3,045.1,0.404,733.2,01.19,0.508
2013-11-03 03:12:00,8677E-4,5C000000,-0724,0956,11092,020.3,045.1,0.404,733.2,01.19,0.508
2013-11-03 03:13:00,8704E-4,5C000000,-0724,0957,11003,020.3,045.1,0.404,733.0,01.19,0.508
2013-11-03 03:14:00,7606E-4,5C000000,-0724,0957,10886,020.3,045.1,0.404,733.2,01.19,0.508
2013-11-03 03:15:00,8191E-4,5C000000,-0724,0957,10937,020.3,045.1,0.404,733.1,01.19,0.508
2013-11-03 03:16:00,8425E-4,5C000000,-0724,0957,11022,020.3,045.1,0.404,733.2,01.19,0.508
2013-11-03 03:17:00,9170E-4,5C000000,-0724,0957,11020,020.3,045.1,0.404,733.2,01.19,0.508
2013-11-03 03:18:00,9507E-4,5C000000,-0724,0957,11008,020.3,045.1,0.404,733.1,01.19,0.508
2013-11-03 03:19:00,8752E-4,5C000000,-0724,0956,10933,020.3,045.1,0.404,733.1,01.19,0.508
2013-11-03 03:20:00,9795E-4,5C000000,-0724,0956,10943,020.3,045.1,0.404,733.2,01.19,0.508
2013-11-03 03:21:00,8752E-4,5C000000,-0724,0956,10997,020.3,045.1,0.404,733.0,01.19,0.508
2013-11-03 03:22:00,8900E-4,5C000000,-0724,0957,11077,020.3,045.1,0.404,733.1,01.19,0.508
2013-11-03 03:23:00,7811E-4,5C000000,-0724,0957,10899,020.3,045.1,0.404,733.2,01.19,0.508
2013-11-03 03:24:00,7792E-4,5C000000,-0724,0956,11054,020.3,045.1,0.404,733.1,01.19,0.508
2013-11-03 03:25:00,9555E-4,5C000000,-0724,0956,10963,020.3,045.1,0.404,733.2,01.19,0.508
2013-11-03 03:26:00,8732E-4,5C000000,-0724,0956,10912,020.3,045.1,0.404,733.1,01.19,0.508
2013-11-03 03:27:00,8215E-4,5C000000,-0724,0956,10871,020.3,045.1,0.404,733.2,01.19,0.508
2013-11-03 03:28:00,8907E-4,5C000000,-0724,0956,11058,020.3,045.1,0.404,733.2,01.19,0.508
2013-11-03 03:29:00,9236E-4,5C000000,-0724,0956,11037,020.3,045.1,0.404,733.2,01.19,0.508
2013-11-03 03:30:00,8916E-4,5C000000,-0724,0957,11009,020.3,045.1,0.404,733.3,01.19,0.508
2013-11-03 03:31:00,8333E-4,5C000000,-0724,0956,11012,020.3,045.1,0.404,733.3,01.19,0.508
2013-11-03 03:32:00,8784E-4,5C000000,-0724,0956,10963,020.3,045.1,0.404,733.3,01.19,0.508
2013-11-03 03:33:00,8507E-4,5C000000,-0724,0956,11004,020.3,045.1,0.404,733.3,01.19,0.508
2013-11-03 03:34:00,8943E-4,5C000000,-0724,0956,10869,020.3,045.1,0.404,733.3,01.19,0.508
2013-11-03 03:35:00,8110E-4,5C000000,-0724,0956,10960,020.3,045.1,0.404,733.3,01.19,0.508
2013-11-03 03:36:00,9636E-4,5C000000,-0724,0956,11031,020.3,045.1,0.404,733.3,01.19,0.508
2013-11-03 03:37:00,9625E-4,5C000000,-0724,0957,10956,020.3,045.1,0.404,733.2,01.19,0.508
2013-11-03 03:38:00,9319E-4,5C000000,-0724,0956,11012,020.3,045.1,0.404,733.3,01.19,0.508
2013-11-03 03:39:00,8978E-4,5C000000,-0724,0956,10829,020.3,045.1,0.404,733.3,01.19,0.508
2013-11-03 03:40:00,9143E-4,5C000000,-0724,0956,10924,020.3,045.1,0.404,733.1,01.19,0.508
2013-11-03 03:41:00,8775E-4,5C000000,-0724,0955,10965,020.2,045.1,0.404,733.2,01.19,0.508
2013-11-03 03:42:00,8327E-4,5C000000,-0724,0956,10987,020.3,045.1,0.404,733.2,01.19,0.508
2013-11-03 03:43:00,9015E-4,5C000000,-0724,0957,10899,020.3,045.1,0.404,733.2,01.19,0.508
2013-11-03 03:44:00,9584E-4,5C000000,-0724,0956,10992,020.3,045.1,0.404,733.2,01.19,0.508
2013-11-03 03:45:00,8624E-4,5C000000,-0724,0956,10985,020.3,045.1,0.404,733.1,01.19,0.508
2013-11-03 03:46:00,9019E-4,5C000000,-0724,0956,10958,020.2,045.1,0.404,733.1,01.19,0.508
2013-11-03 03:47:00,9906E-4,5C000000,-0724,0956,10945,020.2,045.1,0.404,733.2,01.19,0.508
2013-11-03 03:48:00,9878E-4,5C000000,-0724,0957,10906,020.2,045.1,0.404,733.2,01.19,0.508
2013-11-03 03:49:00,8120E-4,5C000000,-0724,0956,10974,020.2,045.1,0.404,733.2,01.19,0.508
2013-11-03 03:50:00,8347E-4,5C000000,-0724,0957,11063,020.2,045.1,0.404,733.2,01.19,0.508
2013-11-03 03:51:00,8319E-4,5C000000,-0724,0956,10823,020.2,045.1,0.404,733.2,01.19,0.508
2013-11-03 03:52:00,8803E-4,5C000000,-0724,0956,10924,020.2,045.1,0.404,733.2,01.19,0.508
2013-11-03 03:53:00,7679E-4,5C000000,-0724,0956,10911,020.2,045.1,0.404,733.2,01.19,0.508
2013-11-03 03:54:00,9436E-4,5C000000,-0724,0956,10923,020.3,045.1,0.404,733.2,01.19,0.508
2013-11-03 03:55:00,8987E-4,5C000000,-0724,0957,10911,020.3,045.1,0.404,733.2,01.19,0.508
2013-11-03 03:56:00,8162E-4,5C000000,-0724,0956,10966,020.3,045.1,0.404,733.2,01.19,0.508
2013-11-03 03:57:00,9163E-4,5C000000,-0724,0956,10936,020.3,045.1,0.404,733.2,01.19,0.508
2013-11-03 03:58:00,7703E-4,5C000000,-0724,0956,11045,020.2,045.1,0.404,733.3,01.19,0.508
2013-11-03 03:59:00,9147E-4,5C000000,-0724,0956,11052,020.3,045.1,0.404,733.3,01.19,0.508
2013-11-03 04:00:00,8797E-4,5C000000,-0724,0956,10872,020.2,045.1,0.404,733.3,01.19,0.508
2013-11-03 04:01:00,9164E-4,5C000000,-0724,0956,10954,020.2,045.1,0.404,733.4,01.19,0.508
2013-11-03 04:02:00,9004E-4,5C000000,-0724,0956,10952,020.2,045.1,0.404,733.4,01.19,0.508
2013-11-03 04:03:00,8775E-4,5C000000,-0724,0956,10970,020.3,045.1,0.404,733.5,01.19,0.508
2013-11-03 04:04:00,8570E-4,5C000000,-0724,0956,10823,020.2,045.1,0.404,733.4,01.19,0.508
2013-11-03 04:05:00,8517E-4,5C000000,-0724,0956,10940,020.3,045.1,0.404,733.5,01.19,0.508
2013-11-03 04:06:00,8664E-4,5C000000,-0724,0956,10983,020.2,045.1,0.404,733.4,01.19,0.508
2013-11-03 04:07:00,8347E-4,5C000000,-0724,0957,10962,020.2,045.1,0.404,733.4,01.19,0.508
2013-11-03 04:08:00,8499E-4,5C000000,-0724,0956,10860,020.2,045.1,0.404,733.4,01.19,0.508
2013-11-03 04:09:00,9499E-4,5C000000,-0724,0955,10865,020.2,045.1,0.404,733.5,01.19,0.508
2013-11-03 04:10:00,1009E-3,5C000000,-0724,0955,11023,020.3,045.1,0.404,733.5,01.19,0.508
2013-11-03 04:11:00,9151E-4,5C000000,-0724,0956,10972,020.3,045.1,0.404,733.4,01.19,0.508
2013-11-03 04:12:00,7980E-4,5C000000,-0724,0956,10822,020.3,045.1,0.404,733.4,01.19,0.508
2013-11-03 04:13:00,8933E-4,5C000000,-0724,0957,11071,020.3,045.1,0.404,733.4,01.19,0.508
2013-11-03 04:14:00,9986E-4,5C000000,-0724,0957,11061,020.2,045.1,0.404,733.3,01.19,0.508
2013-11-03 04:15:00,8492E-4,5C000000,-0724,0956,10799,020.3,045.1,0.404,733.3,01.19,0.508
2013-11-03 04:16:00,8860E-4,5C000000,-0724,0957,10968,020.3,045.1,0.404,733.3,01.19,0.508
2013-11-03 04:17:00,8843E-4,5C000000,-0724,0956,10896,020.3,045.1,0.404,733.3,01.19,0.508
2013-11-03 04:18:00,8466E-4,5C000000,-0724,0956,11074,020.3,045.1,0.404,733.4,01.19,0.508
2013-11-03 04:19:00,1008E-3,5C000000,-0724,0956,10816,020.2,045.1,0.404,733.2,01.19,0.508
2013-11-03 04:20:00,7704E-4,5C000000,-0724,0957,11067,020.3,045.1,0.404,733.3,01.19,0.508